Location: Noulens
(43.8099°N, 0.1664°E)
Time: 07:23:39
(UTC+00:00)

STARLINK-70 - Pass Details

Date: 07 June 2020
Orbit: 468 x 469 km, 53.0° (Epoch: 05 July)

Event Time Altitude Azimuth Distance (km) Brightness Sun altitude
Exits shadow 02:01:15 26° 149° (SSE) 949 4.5 -17.7°
Maximum altitude 02:01:45 27° 134° (SE) 926 4.6 -17.6°
Drops below altitude 10° 02:04:54 10° 75° (ENE) 1,629 6.7 -17.3°
Sets 02:07:16 0° 63° (ENE) 2,511 8.0 -17.1°
